Regional Weather Roundup
Issued by NWS

Home | Current Version | Previous Version | Text Only | Print | Product List | Glossary Off
Versions: 1 2 3 4 5 6 7 8 9 10 11 12 13 14 15 16 17 18 19 20 21 22 23 24 25 26 27 28 29 30 31 32 33 34 35 36 37 38 39 40 41 42 43 44 45 46 47 48 49 50

915
ASUS44 KJAN 211503
RWRMS

MISSISSIPPI HOURLY WEATHER ROUNDUP
NATIONAL WEATHER SERVICE JACKSON MS
900 AM CST SUN DEC 21 2014

NOTE: "FAIR: INDICATES FEW OR NO CLOUDS BELOW 12,000 FEET WITH NO
SIGNIFICANT WEATHER AND/OR OBSTRUCTIONS TO VISIBILITY.

MSZ001>002-007>008-010>013-018>021-025>028-034>036-211600-
NORTHWEST MISSISSIPPI

CITY           SKY/WX    TMP DP  RH WIND       PRES   REMARKS
CLARKSDALE     FAIR      39  36  87 NE7       30.21F WCI  34
CLEVELAND      FAIR      42  37  84 E6        30.19S
GREENWOOD      SUNNY     42  34  73 NE6       30.19R
GREENVILLE     SUNNY     42  36  79 E5        30.17F
GRENADA        FAIR      41  34  75 CALM      30.21R
OLIVE BRANCH   MOSUNNY   34  34 100 NE3       30.22R
OXFORD         FAIR      37  32  81 CALM      30.21S
TUNICA         SUNNY     37  32  81 CALM      30.23S
$$

MSZ003>006-009-014>017-022>024-029>033-037>039-211600-
NORTHEAST MISSISSIPPI

CITY           SKY/WX    TMP DP  RH WIND       PRES   REMARKS
COLUMBUS AFB   SUNNY     38  33  82 CALM      30.19R HAZE
CORINTH        FAIR      36  32  87 CALM      30.21S
GOLDN TRIANGLE PTSUNNY   36  30  80 CALM      30.18R
STARKVILLE     FAIR      37  36  93 CALM      30.18S
TUPELO         SUNNY     37  32  82 NE7       30.20R WCI  32
$$

MSZ040-058-211600-
CENTRAL MISSISSIPPI

CITY           SKY/WX    TMP DP  RH WIND       PRES   REMARKS
JACKSON INTL   SUNNY     46  38  73 CALM      30.16R
JACKSON HAWKNS SUNNY     46  39  76 E3        30.17R
MERIDIAN KEY   CLOUDY    43  40  89 NE6       30.16S
MERIDIAN NAS   CLOUDY    42  39  89 CALM      30.18R
RAYMOND        FAIR      39  36  87 CALM      30.16S
VICKSBURG      SUNNY     45  38  76 NE3       30.16R
$$

MSZ059>079-211600-
SOUTH MISSISSIPPI

CITY           SKY/WX    TMP DP  RH WIND       PRES   REMARKS
HATTIESBURG    CLOUDY    45  44  97 NE6       30.14S FOG
MCCOMB         PTSUNNY   45  41  86 NE5       30.12F
NATCHEZ        SUNNY     39  37  93 CALM      30.15S
PINE BELT      CLOUDY    45  41  87 NE5       30.14S VSB 1/2
$$

MSZ080>082-211600-
COASTAL MISSISSIPPI

CITY           SKY/WX    TMP DP  RH WIND       PRES   REMARKS
BILOXI         NOT AVBL
PASCAGOULA     CLOUDY    53  49  86 VRB6      30.12R
GULFPORT       CLOUDY    52  48  86 NE5       30.11F
$$



USA.gov is the U.S. government's official web portal to all federal, state and local government web resources and services.